sat.trackr.live / text

‹ back to catalog

STARLINK-31459

NORAD 59233 · 2024-049C

PAYLOAD ACTIVE UNKNOWN

§ Identity

Operator
Country
US
Launch date
2024-03-16
Launch site
AFETR
Launch vehicle
Mass (kg)
RCS (m²)

Purposes: comms

External: N2YO · Heavens-Above · Gunter

§ Orbital elements

Epoch: 2026-05-25T04:13:19.056000Z

Period
94.27 min
Inclination
43.0028°
Eccentricity
0.0000795
Mean motion
15.27577956 rev/d
Perigee alt
482.5 km
Apogee alt
483.6 km
Semi-major
6,861.2 km
B*
3.6638e-5
RAAN
71.5853°
Arg perigee
274.9572°
Mean anomaly
85.1189°
Rev number
12,409

§ Raw data

STARLINK-314591 59233U 24049C   26145.17591500  .00000746  00000+0  36638-4 0  99932 59233  43.0028  71.5853 0000795 274.9572  85.1189 15.27577956124099

JSON: /api/v1/satellites/59233 · /tle

For live sub-satellite position, see the globe view (requires WebGL).

§ Visibility from observer

Set your observer location to see the next 7 days of passes ≥ 10°. The values pass through the URL so the page stays shareable.

No JS? Fill the form by hand. The geolocation button needs JavaScript.